Weather History for KOMA - March, 2013

Change the Weather History Date:

Tuesday, March 26, 2013

  Actual Average Record
Temperature  
Mean Temperature 29 °F 44 °F  
Max Temperature 41 °F 56 °F 86 °F (1907)
Min Temperature 16 °F 32 °F 2 °F (1873)
Degree Days  
Heating Degree Days 36 21  
Month to date heating degree days 854 690  
Since 1 July heating degree days 5335 5488  
Cooling Degree Days 0 0  
Month to date cooling degree days 0 0  
Year to date cooling degree days 0 0  
Moisture  
Dew Point 17 °F    
Average Humidity 66    
Maximum Humidity 88    
Minimum Humidity 44    
Precipitation  
Precipitation 0.00 in 0.07 in 1.42 in (1983)
Month to date precipitation 1.73 1.57  
Year to date precipitation 3.02 3.14  
Snow  
Snow 0.00 in 0.10 in - ()
Month to date snowfall 10.7 3.7  
Since 1 July snowfall 32.1 24.9  
Snow Depth 1.00 in    
Sea Level Pressure  
Sea Level Pressure 30.36 in    
Wind  
Wind Speed 4 mph (SW)    
Max Wind Speed 10 mph    
Max Gust Speed 14 mph    
Visibility 10 miles    
Events      
T = Trace of Precipitation, MM = Missing Value Source: NWS Daily Summary

Daily Weather History Graph

Daily Weather History Graph

Search for Another Location

Airport or City:

Trip Planner

Search our weather history database for the weather conditions in past years. The results will help you decide how hot, cold, wet, or windy it might be!

Date:

Astronomy

Mar. 26, 2013 Rise Set
Actual Time 7:16 AM CDT 7:42 PM CDT
Civil Twilight 6:48 AM CDT 8:10 PM CDT
Nautical Twilight 6:16 AM CDT 8:42 PM CDT
Astronomical Twilight 5:42 AM CDT 9:16 PM CDT
Moon 7:20 PM CDT (3/26) 6:33 AM CDT (3/26)
Length of Visible Light 13h 21m
Length of Day
12h 26m
Waxing Gibbous, 99% of the Moon is Illuminated
Mar 26
Waxing Gibbous
Mar 27
Full
Apr 2
Last Quarter
Apr 10
New
Apr 18
First Quarter

Hourly Weather History & Observations

Time (CDT) Temp. Windchill Dew Point Humidity Pressure Visibility Wind Dir Wind Speed Gust Speed Precip Events Conditions
12:52 AM 24.1 °F 16.0 °F 17.1 °F 75% 30.39 in 10.0 mi WNW 6.9 mph - N/A   Mostly Cloudy
1:52 AM 23.0 °F 13.1 °F 16.0 °F 74% 30.39 in 10.0 mi WNW 9.2 mph - N/A   Scattered Clouds
2:52 AM 19.9 °F 12.1 °F 15.1 °F 81% 30.39 in 10.0 mi NW 5.8 mph - N/A   Partly Cloudy
3:52 AM 17.1 °F 7.6 °F 12.9 °F 84% 30.39 in 10.0 mi NW 6.9 mph - N/A   Clear
4:52 AM 19.0 °F - 14.0 °F 81% 30.39 in 10.0 mi Calm Calm - N/A   Clear
5:52 AM 18.0 °F 12.7 °F 12.9 °F 81% 30.39 in 10.0 mi WNW 3.5 mph - N/A   Clear
6:52 AM 18.0 °F 12.7 °F 14.0 °F 84% 30.41 in 10.0 mi NW 3.5 mph - N/A   Clear
7:52 AM 17.1 °F - 14.0 °F 88% 30.42 in 10.0 mi Calm Calm - N/A   Partly Cloudy
8:52 AM 23.0 °F - 19.0 °F 85% 30.42 in 10.0 mi Calm Calm - N/A   Clear
9:52 AM 27.0 °F - 18.0 °F 69% 30.43 in 10.0 mi Calm Calm - N/A   Clear
10:52 AM 30.0 °F - 15.1 °F 54% 30.42 in 10.0 mi Calm Calm - N/A   Partly Cloudy
11:52 AM 30.9 °F 25.2 °F 16.0 °F 54% 30.41 in 10.0 mi West 5.8 mph - N/A   Partly Cloudy
12:52 PM 33.1 °F 26.1 °F 18.0 °F 54% 30.40 in 10.0 mi NNW 8.1 mph - N/A   Partly Cloudy
1:52 PM 34.0 °F 29.8 °F 19.0 °F 54% 30.38 in 10.0 mi Variable 4.6 mph - N/A   Partly Cloudy
2:52 PM 37.0 °F - 19.0 °F 48% 30.35 in 10.0 mi Calm Calm - N/A   Scattered Clouds
3:52 PM 37.0 °F 34.5 °F 18.0 °F 46% 30.33 in 10.0 mi SE 3.5 mph - N/A   Scattered Clouds
4:52 PM 39.9 °F - 19.0 °F 43% 30.31 in 10.0 mi Calm Calm - N/A   Partly Cloudy
5:52 PM 39.9 °F 36.7 °F 19.0 °F 43% 30.30 in 10.0 mi South 4.6 mph - N/A   Scattered Clouds
6:52 PM 39.0 °F 34.0 °F 19.0 °F 45% 30.28 in 10.0 mi ESE 6.9 mph - N/A   Mostly Cloudy
7:52 PM 37.0 °F 33.3 °F 19.9 °F 50% 30.29 in 10.0 mi South 4.6 mph - N/A   Mostly Cloudy
8:52 PM 33.1 °F 28.7 °F 21.0 °F 61% 30.30 in 10.0 mi ESE 4.6 mph - N/A   Mostly Cloudy
9:52 PM 33.1 °F 30.0 °F 19.9 °F 59% 30.31 in 10.0 mi ESE 3.5 mph - N/A   Scattered Clouds
10:52 PM 30.0 °F 25.2 °F 19.9 °F 66% 30.32 in 10.0 mi ESE 4.6 mph - N/A   Mostly Cloudy
11:52 PM 30.9 °F 25.2 °F 21.9 °F 69% 30.31 in 10.0 mi SE 5.8 mph - N/A   Overcast